Regional Weather Roundup
Issued by NWS

Home | Current Version | Previous Version | Text Only | Print | Product List | Glossary On
Versions: 1 2 3 4 5 6 7 8 9 10 11 12 13 14 15 16 17 18 19 20 21 22 23 24 25 26 27 28 29 30 31 32 33 34 35 36 37 38 39 40 41 42 43 44 45 46 47 48 49 50
000
ASUS45 KTFX 231410
RWRMT
MONTANA REGIONAL WEATHER ROUNDUP
NATIONAL WEATHER SERVICE GREAT FALLS MT
700 AM MST FRI FEB 23 2018

NOTE: "FAIR" INDICATES FEW OR NO CLOUDS BELOW 12000 FEET WITH NO
SIGNIFICANT WEATHER AND/OR OBSTRUCTIONS TO VISIBILITY.

MTZ001>007-043-231500-
WEST OF THE DIVIDE

CITY           SKY/WX    TMP DP  RH WIND       PRES   REMARKS
KALISPELL      CLOUDY    -3  -7  82 CALM      30.21R
MISSOULA       CLOUDY     8   3  80 CALM      30.22R
BUTTE          MOCLDY    -1  -7  75 CALM      30.03R HAZE
MULLAN PASS    LGT SNOW   7   4  87 VRB5      29.99S FOG
ANACONDA         N/A     -4  -9  77 SW5       30.07S
DEER LODGE       N/A     -2  -8  78 CALM      30.12R
HAMILTON         N/A      9   5  85 MISG      30.18S
RONAN            N/A     -4  -8  84 NW5       30.22S
$$

MTZ008-052>055-231500-
SOUTHWEST MONTANA

CITY           SKY/WX    TMP DP  RH WIND       PRES   REMARKS
BOZEMAN        MOCLDY    -1  -5  82 CALM      30.10R
DILLON         CLOUDY    -2  -2 100 S7        30.03S WCI -15
ENNIS          CLOUDY    -2  -6  84 CALM      30.05S
W YELLOWSTONE  LGT SNOW  -4  -9  77 CALM      29.93R
THREE FORKS      N/A      4  -1  79 CALM      30.08S
$$

MTZ009-010-012-014-046-048-049-054-231500-
EAST SLOPES AND CENTRAL MONTANA

CITY           SKY/WX    TMP DP  RH WIND       PRES   REMARKS
CUT BANK       FAIR      -7 -12  79 S5        29.92F
GREAT FALLS    FAIR      -8 -13  78 W8        30.01F WCI -24
MALMSTROM AFB  CLEAR     -6  -9  84 W5        30.05F
HELENA         FAIR      -3  -6  87 W3        30.13R
AUGUSTA        FAIR      -7  -8  95 CALM      29.95F
CHOTEAU          N/A      3  -6  66 S7        29.98F WCI  -9
RAYNESFORD     FAIR      -4  -9  78 SW3       30.00F
WHITE SULPHUR    N/A    -11 -15  84 E6        30.01S WCI -25
$$

MTZ011-013-016-021-045-047-050-051-231500-
NORTH CENTRAL MONTANA

CITY           SKY/WX    TMP DP  RH WIND       PRES   REMARKS
HAVRE          FAIR     -14 -19  79 NW5       30.12F
LEWISTOWN      FAIR      -7 -12  79 SE7       29.99F WCI -21
N BAR RANCH    FAIR      -8 -15  71 N6        29.99F WCI -21
CHINOOK          N/A    -20 -26  76 CALM      30.16F
GEYSER         FAIR       5  -5  63 SW9       29.98F WCI  -9
STANFORD       FAIR       1  -8  67 SW3       29.96F
$$

MTZ017>020-022>027-061-062-231500-
NORTHEAST MONTANA

CITY           SKY/WX    TMP DP  RH WIND       PRES   REMARKS
GLASGOW        FAIR     -12 -18  74 SE3       30.19F
GLENDIVE       FAIR      -8 -17  64 S5        30.21F
JORDAN           N/A    -16 -22  74 CALM      30.17F
MALTA          CLEAR    -22 -27  76 E5        30.18S
SIDNEY         MOCLDY   -16 -21  78 S7        30.26S WCI -32
WOLF POINT     FAIR     -16 -21  78 SW5       30.25S
PLENTYWOOD       N/A     -6  -9  84 E3        30.17F
POPLAR           N/A    -15 -20  76 SW3       30.26R
$$

MTZ028>42-056>058-231500-
SOUTHCENTRAL AND SOUTHEAST MONTANA

CITY           SKY/WX    TMP DP  RH WIND       PRES   REMARKS
BAKER          FAIR     -13 -16  86 CALM      30.18R
BILLINGS       FAIR      -3  -7  82 SW15      30.11F WCI -23
MILES CITY     FAIR     -16 -18  91 S7        30.21S WCI -32
BIG TIMBER     CLOUDY     1  -4  78 SW5       30.06F
EKALAKA          N/A     -1  -9  69 SE5       30.07S
FORSYTH          N/A    -15 -18  84 CALM      30.19F
LAUREL           N/A     -9 -13  84 SW9       30.14F WCI -27
$$

REGIONAL REPORTS...DAKOTAS

CITY           SKY/WX    TMP DP  RH WIND       PRES   REMARKS
WILLISTON      CLOUDY    -5 -11  75 SW7       30.24R WCI -19
MINOT          FAIR       0  -4  83 SW7       30.18F WCI -13
DICKINSON      FAIR      -6 -12  75 W8        30.15S WCI -21
BEACH          FAIR      -6 -11  77 SW3       30.20S
CROSBY         CLOUDY     5   1  85 SW13      30.18F WCI -12
TIOGA          LGT SNOW   0  -2  92 SW8       30.19R WCI -15
WATFORD CITY   FAIR     -13 -18  77 SW8       30.23S WCI -30
BISMARCK       FAIR       3  -2  79 W5        30.24R
GRAND FORKS    CLOUDY    14   8  77 NW6       30.16R WCI   5
FARGO          LGT SNOW  19  16  88 NW7       30.16R FOG     WCI  10
BUFFALO SD       N/A     -5 -10  79 W7        30.08S WCI -19
RAPID CITY     FAIR      -2  -5  87 CALM      30.17R
$$

REGIONAL REPORTS...WYOMING/IDAHO/WASHINGTON

CITY           SKY/WX    TMP DP  RH WIND       PRES   REMARKS
GILLETTE       FAIR      -9 -14  78 CALM      30.07R
SHERIDAN       FAIR     -10 -14  82 CALM      30.08S
BUFFALO WY     FAIR       4  -5  66 S6        30.01S WCI  -7
CODY           FAIR      -4  -9  79 CALM      30.02S
YELLOWSTONE LA   N/A    -15 -20  78 CALM      29.92R
IDAHO FALLS    FAIR      13  11  92 CALM      30.05R
SALMON         FLURRIES  17  10  74 N3        30.14R
BOISE          FAIR      13   8  81 CALM      30.23R
SPOKANE        FAIR      11   7  84 S9        30.26F WCI  -2
$$

REGIONAL REPORTS...ALBERTA

CITY           SKY/WX    TMP DP  RH WIND       PRES   REMARKS
CALGARY        PTCLDY    -2  -8  78 SW2       29.78F
CARDSTON         N/A     10  -4  52 S5          N/A
EDMONTON       CLEAR      5  -2  72 SW10      29.75F WCI -10
FORT MCMURRAY  MOCLDY    18   7  62 S10       29.64F WCI   6
HIGH LEVEL     PTCLDY    14   7  73 SE5       29.47F
LETHBRIDGE     CLEAR      1  -8  66 SW17G25   29.90F WCI -19
LLOYDMINSTER   PTCLDY     0  -2  92 S15       29.87F WCI -20
MEDICINE HAT   PTCLDY    -4  -8  84 S2        30.00F
MILK RIVER       N/A     -2  -8  78 S5          N/A
ONEFOUR          N/A     -9 -13  84 E12         N/A  WCI -29
PEACE RIVER    CLOUDY    14   5  67 SW6       29.55F WCI   5
PINCHER CREEK  LGT SNOW  12   5  73 W32G43    29.85F BLWGSNOWWCI -10
WATERTON GATE    N/A     14   1  57 SW29G45     N/A  WCI  -7
$$

REGIONAL REPORTS...SASKATCHEWAN

CITY           SKY/WX    TMP DP  RH WIND       PRES   REMARKS
CORONACH         N/A      0  -4  85 SE5         N/A
CYPRESS HILLS    N/A      1  -2  85 S6          N/A  WCI -10
ESTEVAN        PTCLDY     1  -4  78 W8        30.17S WCI -12
MOOSE JAW        N/A      9   5  85 CALM        N/A
PRINCE ALBERT  PTCLDY   -15 -20  76 CALM      30.08F
REGINA         MOCLDY     5   1  85 S7        30.13F WCI  -7
ROCKGLEN         N/A     -4  -9  77 SW7         N/A  WCI -18
SASKATOON      PTCLDY    -4  -9  77 S12       30.08F WCI -22
SWIFT CURRENT  CLEAR      1  -4  78 S10       30.02F WCI -14
VAL MARIE        N/A    -20 -27  69 CALM        N/A
$$



USA.gov is the U.S. government's official web portal to all federal, state and local government web resources and services.